Location: Carri�res
(48.9069°N, 2.1792°E)
Time: 13:46:26
(UTC+00:00)

Cosmos 1603 - Pass Details

Date: 17 January 2021
Orbit: 829 x 861 km, 71.0° (Epoch: 25 February)

Event Time Altitude Azimuth Distance (km) Brightness Sun altitude
Rises 17:23:46 0° 332° (NNW) 3,417 7.0 -9.4°
Reaches altitude 10° 17:26:14 10° 334° (NNW) 2,483 6.2 -9.8°
Maximum altitude 17:31:57 79° 61° (ENE) 875 3.7 -10.7°
Drops below altitude 10° 17:37:41 10° 148° (SSE) 2,486 6.0 -11.6°
Sets 17:40:08 0° 150° (SSE) 3,421 6.7 -12.0°
